Regional Weather Roundup
Issued by NWS

Home | Current Version | Previous Version | Text Only | Print | Product List | Glossary On
Versions: 1 2 3 4 5 6 7 8 9 10 11 12 13 14 15 16 17 18 19 20 21 22 23 24 25 26 27 28 29 30 31 32 33 34 35 36 37 38 39 40 41 42 43 44 45 46 47 48 49 50
000
ASUS43 KDTX 032110
RWRMI
MICHIGAN HOURLY REGIONAL WEATHER ROUNDUP
NATIONAL WEATHER SERVICE DETROIT/PONTIAC MI
500 PM EDT MON AUG 03 2020

NOTE: "FAIR" INDICATES FEW OR NO CLOUDS BELOW 12,000 FEET WITH NO
SIGNIFICANT WEATHER AND/OR OBSTRUCTION TO VISIBILITY.

MIZ047>049-052>055-059>063-066>070-074>076-081>083-032200-
SOUTHEAST LOWER MICHIGAN

CITY           SKY/WX    TMP DP  RH WIND       PRES   REMARKS
ADRIAN         PTSUNNY   82  59  45 NW8       29.94S
ALMA           CLOUDY    71  64  77 N12       29.97S
ANN ARBOR      MOSUNNY   82  60  47 NW7       29.92F
BAD AXE        PTSUNNY   71  63  75 NE9G17    29.97R
CARO           PTSUNNY   74  63  69 N3        29.95R
DETROIT CITY   PTSUNNY   75  66  73 NE9G21    29.92S
DETROIT        PTSUNNY   84  61  45 W12       29.92S
FLINT          PTSUNNY   77  61  57 VRB7      29.93F
GROSSE ILE     MOSUNNY   81  64  54 S5        29.91F
HILLSDALE      MOSUNNY   78  63  60 W9        29.94S
HOWELL         MOSUNNY   77  62  59 NW6       29.94S

CITY           SKY/WX    TMP DP  RH WIND       PRES   REMARKS
JACKSON        PTSUNNY   75  65  70 NW5       29.95S
LAMBERTVILLE   PTSUNNY   80  62  54 SW7       29.92S
LANSING        PTSUNNY   78  62  57 N7        29.95S
LAPEER         PTSUNNY   76  65  68 CALM      29.95S
MASON          PTSUNNY   78  63  59 N8G17     29.94F
MONROE         MOSUNNY   82  61  49 W8G17     29.91S
MT. CLEMENS    PTSUNNY   73  73  99 NE9       29.92S
PONTIAC        PTSUNNY   80  61  52 NW7       29.92S
PORT HOPE        N/A     68  61  78 NE16      29.97S
PORT HURON     MOSUNNY   73  66  78 E5        29.94S
MIDLAND        LGT RAIN  67  64  91 NE8       29.98R
TROY           MOSUNNY   82  60  48 NE6       29.94S
SAGINAW HB     CLOUDY    70  63  78 N12       29.95S
$$
MIZ043>046-050>051-056>058-064>065-071>073-077>080-032200-
SOUTHWEST LOWER MICHIGAN

CITY           SKY/WX    TMP DP  RH WIND       PRES   REMARKS
BATTLE CREEK   MOSUNNY   79  62  56 NW8       29.96S
BENTON HARBOR  CLOUDY    70  60  70 VRB7      29.99S
BIG RAPIDS     CLOUDY    65  59  81 N5        30.01S
COLDWATER      MOSUNNY   77  63  61 NW8       29.95S
FREMONT        CLOUDY    68  60  75 NE12      30.00S
HOLLAND        MOSUNNY   75  61  61 NW7G18    29.97F
GRAND RAPIDS   PTSUNNY   75  63  66 N14       29.96S
IONIA          PTSUNNY   74  59  58 N9        29.95S
KALAMAZOO      PTSUNNY   79  60  52 NW8G17    29.95S
LUDINGTON      CLOUDY    65  56  70 NE9G17    30.03S
MARSHALL       MOSUNNY   76  62  61 CALM      29.94S
MOUNT PLEASANT CLOUDY    69  61  76 N10G16    29.98S
MUSKEGON       CLOUDY    72  59  63 N13       29.99S
SOUTH HAVEN    MOSUNNY   72  62  70 NW10      29.99R
$$
MIZ016>042-032200-
NORTHERN LOWER MICHIGAN

CITY           SKY/WX    TMP DP  RH WIND       PRES   REMARKS
ALPENA         LGT RAIN  60  57  89 N10       30.06S
BEAVER ISLAND  SUNNY     68  48  49 N10       30.07F
BELLAIRE       CLOUDY    63  53  71 NE6       30.06F
CADILLAC       CLOUDY    61  58  87 N9        30.03S
CHARLEVOIX     CLOUDY    63  51  64 N12       30.07S
GAYLORD        CLOUDY    57  55  93 N8        30.07S
GRAYLING       CLOUDY    60  58  94 NE13      30.04S
HARBOR SPRINGS CLOUDY    64  51  62 NE8       30.07S
HOUGHTON LAKE  LGT RAIN  60  57  89 NE10      30.04F FOG
MANISTEE       CLOUDY    64  54  68 N9        30.04F
OSCODA         RAIN      61  61 100 N14       30.02R
PELLSTON       CLOUDY    63  50  62 NE10      30.07F
ROGERS CITY    CLOUDY    60  49  66 N8        30.08S
TRAVERSE CITY  CLOUDY    64  53  67 N9        30.04F
$$
MIZ007>008-015-032200-
EASTERN UPPER MICHIGAN

CITY           SKY/WX    TMP DP  RH WIND       PRES   REMARKS
MACKINAC ISLAN PTSUNNY   62  50  66 CALM      30.07S
NEWBERRY       PTSUNNY   65  46  50 N14G22    30.08S
S. S. MARIE    CLOUDY    66  48  52 NE6       30.06
MUNISING         N/A     61  51  70 N13       30.13S
$$
MIZ004>006-011>014-085-032200-
CENTRAL UPPER MICHIGAN

CITY           SKY/WX    TMP DP  RH WIND       PRES   REMARKS
SAWYER-GWINN   MOSUNNY   61  48  63 NE15      30.14F
$$
MIZ001>003-009>011-084-032200-
WESTERN UPPER MICHIGAN

CITY           SKY/WX    TMP DP  RH WIND       PRES   REMARKS
IRON MOUNTAIN  CLOUDY    67  46  47 NE8       30.12
COPPER HARBOR    N/A     63  51  65 NE6       30.16F
IRONWOOD       MOSUNNY   65  46  50 N6        30.17F
$$

ABBREVIATIONS USED IN REMARKS
   TC - TEMPERATURE IN CELSIUS
  WCI - WIND CHILL INDEX
   HX - HEAT INDEX
  VSB - VISIBILITY




USA.gov is the U.S. government's official web portal to all federal, state and local government web resources and services.